When you browse on this site, cookies collect data to enhance your experience and personalize the content and advertising you see.
Visit our Privacy Policy to learn more. By continuing to use the site, you agree to this use of cookies and data.
  • In United Kingdom
  • List of Countries
  • For 7 days
  • Water Temperature
  • Satellite Maps
  • Weather Map
  • Weather Widgets
  • user-avatar
    Login

    Hourly Weather Bururi

    Today, 23 January, Wednesday

    Time Temperature Precipitation Wind Pressure Humidity
    00:00 +18°C° 0.2 mm 1 mps 617 mmHg 82%
    01:00 +18°C° 0.2 mm 1 mps 616 mmHg 82%
    02:00 +18°C° 0 mm 1 mps 617 mmHg 86%
    03:00 +18°C° 0.6 mm 1 mps 617 mmHg 86%
    04:00 +18°C° 0.6 mm 1 mps 616 mmHg 86%
    05:00 +18°C° 0.6 mm 1 mps 616 mmHg 87%
    06:00 +18°C° 0.2 mm 1 mps 617 mmHg 86%
    07:00 +18°C° 0.2 mm 1 mps 617 mmHg 85%
    08:00 +19°C° 0 mm 1 mps 617 mmHg 84%
    09:00 +20°C° 0 mm 1 mps 617 mmHg 78%
    10:00 +21°C° 0 mm 1 mps 618 mmHg 72%
    11:00 +23°C° 0 mm 1 mps 618 mmHg 67%
    12:00 +23°C° 0.2 mm 1 mps 618 mmHg 65%
    13:00 +24°C° 0.2 mm 2 mps 617 mmHg 63%
    14:00 +25°C° 0.2 mm 2 mps 617 mmHg 61%
    15:00 +24°C° 0.5 mm 2 mps 616 mmHg 65%
    16:00 +23°C° 0.5 mm 1 mps 616 mmHg 68%
    17:00 +23°C° 0.5 mm 1 mps 615 mmHg 72%
    18:00 +21°C° 0.8 mm 1 mps 615 mmHg 78%
    19:00 +20°C° 0.8 mm 1 mps 615 mmHg 84%
    20:00 +16°C° 0.8 mm 0 mps 615 mmHg 90%
    21:00 +16°C° 0.5 mm 0 mps 616 mmHg 90%
    22:00 +16°C° 0.5 mm 0 mps 616 mmHg 90%
    23:00 +16°C° 0.5 mm 0 mps 617 mmHg 90%

    Tomorrow, 24 January, Thursday

    Time Temperature Precipitation Wind Pressure Humidity
    00:00 +18°C° 0.8 mm 1 mps 617 mmHg 90%
    01:00 +18°C° 0.8 mm 1 mps 617 mmHg 89%
    02:00 +18°C° 0.8 mm 1 mps 616 mmHg 88%
    03:00 +18°C° 0.2 mm 1 mps 616 mmHg 87%
    04:00 +18°C° 0.2 mm 1 mps 616 mmHg 85%
    05:00 +18°C° 0.2 mm 1 mps 616 mmHg 83%
    06:00 +18°C° 0 mm 1 mps 617 mmHg 81%
    07:00 +19°C° 0 mm 1 mps 617 mmHg 80%
    08:00 +20°C° 0 mm 1 mps 618 mmHg 78%
    09:00 +21°C° 0.1 mm 1 mps 618 mmHg 70%
    10:00 +23°C° 0.1 mm 1 mps 619 mmHg 63%
    11:00 +25°C° 0.1 mm 1 mps 619 mmHg 55%
    12:00 +25°C° 0.6 mm 1 mps 619 mmHg 58%
    13:00 +25°C° 0.6 mm 1 mps 618 mmHg 60%
    14:00 +25°C° 0.6 mm 1 mps 617 mmHg 63%
    15:00 +24°C° 1.2 mm 1 mps 617 mmHg 69%
    16:00 +23°C° 1.2 mm 1 mps 616 mmHg 75%
    17:00 +22°C° 1.2 mm 1 mps 616 mmHg 81%
    18:00 +21°C° 1 mm 1 mps 616 mmHg 84%
    19:00 +20°C° 1 mm 1 mps 616 mmHg 87%
    20:00 +18°C° 1 mm 1 mps 616 mmHg 90%
    21:00 +18°C° 0.1 mm 1 mps 616 mmHg 90%
    22:00 +18°C° 0.1 mm 1 mps 617 mmHg 90%
    23:00 +18°C° 0.1 mm 1 mps 617 mmHg 89%

    Day after tomorrow, 25 January, Friday

    Time Temperature Precipitation Wind Pressure Humidity
    00:00 +18°C° 0 mm 1 mps 616 mmHg 89%
    01:00 +18°C° 0 mm 1 mps 616 mmHg 88%
    02:00 +16°C° 0 mm 1 mps 616 mmHg 88%
    03:00 +16°C° 0 mm 1 mps 616 mmHg 88%
    04:00 +16°C° 0 mm 1 mps 616 mmHg 88%
    05:00 +15°C° 0 mm 0 mps 616 mmHg 89%
    06:00 +16°C° 0 mm 0 mps 617 mmHg 85%
    07:00 +17°C° 0 mm 0 mps 617 mmHg 82%
    08:00 +18°C° 0 mm 0 mps 618 mmHg 78%
    09:00 +20°C° 0.7 mm 0 mps 619 mmHg 72%
    10:00 +24°C° 0.7 mm 1 mps 619 mmHg 67%
    11:00 +25°C° 0.7 mm 1 mps 620 mmHg 61%
    12:00 +25°C° 0.7 mm 1 mps 619 mmHg 62%
    13:00 +25°C° 0.7 mm 1 mps 618 mmHg 63%
    14:00 +25°C° 0.7 mm 1 mps 617 mmHg 64%
    15:00 +24°C° 1.5 mm 1 mps 617 mmHg 69%
    16:00 +23°C° 1.5 mm 1 mps 616 mmHg 73%
    17:00 +20°C° 1.5 mm 0 mps 616 mmHg 78%
    18:00 +21°C° 1 mm 1 mps 616 mmHg 81%
    19:00 +20°C° 1 mm 1 mps 616 mmHg 85%
    20:00 +18°C° 1 mm 1 mps 616 mmHg 88%
    21:00 +18°C° 0.1 mm 1 mps 616 mmHg 87%
    22:00 +18°C° 0.1 mm 1 mps 617 mmHg 87%
    23:00 +16°C° 0.1 mm 1 mps 617 mmHg 86%

    26 January, Saturday

    Time Temperature Precipitation Wind Pressure Humidity
    00:00 +16°C° 0 mm 1 mps 616 mmHg 86%
    01:00 +16°C° 0 mm 1 mps 616 mmHg 85%
    02:00 +16°C° 0 mm 1 mps 616 mmHg 85%
    03:00 +16°C° 0 mm 1 mps 616 mmHg 85%
    04:00 +15°C° 0 mm 1 mps 616 mmHg 85%
    05:00 +15°C° 0 mm 1 mps 616 mmHg 85%
    06:00 +18°C° 0 mm 1 mps 617 mmHg 81%
    07:00 +20°C° 0 mm 1 mps 618 mmHg 77%
    08:00 +21°C° 0 mm 1 mps 619 mmHg 73%
    09:00 +23°C° 0.2 mm 1 mps 619 mmHg 68%
    10:00 +24°C° 0.2 mm 1 mps 619 mmHg 63%
    11:00 +26°C° 0.2 mm 1 mps 620 mmHg 59%
    12:00 +26°C° 0.7 mm 1 mps 619 mmHg 59%
    13:00 +26°C° 0.7 mm 1 mps 619 mmHg 60%
    14:00 +26°C° 0.7 mm 1 mps 618 mmHg 61%
    15:00 +26°C° 1 mm 1 mps 617 mmHg 64%
    16:00 +25°C° 1 mm 1 mps 617 mmHg 68%
    17:00 +24°C° 1 mm 1 mps 616 mmHg 71%
    18:00 +22°C° 0.5 mm 1 mps 616 mmHg 76%
    19:00 +20°C° 0.5 mm 1 mps 616 mmHg 80%
    20:00 +18°C° 0.5 mm 1 mps 616 mmHg 85%
    21:00 +18°C° 0 mm 1 mps 617 mmHg 85%
    22:00 +18°C° 0 mm 1 mps 617 mmHg 85%
    23:00 +15°C° 0 mm 0 mps 617 mmHg 84%

    27 January, Sunday

    Time Temperature Precipitation Wind Pressure Humidity
    00:00 +16°C° 0.1 mm 1 mps 617 mmHg 84%
    01:00 +16°C° 0.1 mm 1 mps 616 mmHg 85%
    02:00 +16°C° 0.1 mm 1 mps 615 mmHg 85%
    03:00 +16°C° 0 mm 1 mps 616 mmHg 84%
    04:00 +16°C° 0 mm 1 mps 616 mmHg 83%
    05:00 +16°C° 0 mm 2 mps 616 mmHg 83%
    06:00 +18°C° 0 mm 1 mps 617 mmHg 79%
    07:00 +20°C° 0 mm 1 mps 618 mmHg 74%
    08:00 +21°C° 0 mm 1 mps 618 mmHg 70%
    09:00 +23°C° 0 mm 1 mps 619 mmHg 64%
    10:00 +25°C° 0 mm 1 mps 619 mmHg 58%
    11:00 +27°C° 0 mm 1 mps 619 mmHg 52%
    12:00 +27°C° 0.3 mm 1 mps 619 mmHg 54%
    13:00 +26°C° 0.3 mm 1 mps 618 mmHg 56%
    14:00 +26°C° 0.3 mm 1 mps 617 mmHg 59%
    15:00 +25°C° 0.8 mm 1 mps 616 mmHg 64%
    16:00 +24°C° 0.8 mm 1 mps 616 mmHg 69%
    17:00 +24°C° 0.8 mm 1 mps 616 mmHg 74%
    18:00 +22°C° 1.8 mm 1 mps 616 mmHg 79%
    19:00 +21°C° 1.8 mm 1 mps 616 mmHg 84%
    20:00 +19°C° 1.8 mm 1 mps 616 mmHg 89%
    21:00 +19°C° 1.2 mm 1 mps 616 mmHg 89%
    22:00 +18°C° 1.2 mm 1 mps 617 mmHg 88%
    23:00 +18°C° 1.2 mm 1 mps 617 mmHg 87%

    28 January, Monday

    Time Temperature Precipitation Wind Pressure Humidity
    00:00 +18°C° 0.3 mm 1 mps 616 mmHg 87%
    01:00 +16°C° 0.3 mm 1 mps 616 mmHg 86%
    02:00 +16°C° 0.3 mm 1 mps 616 mmHg 86%
    03:00 +16°C° 0 mm 1 mps 616 mmHg 85%
    04:00 +16°C° 0 mm 1 mps 616 mmHg 85%
    05:00 +16°C° 0 mm 1 mps 616 mmHg 84%
    06:00 +18°C° 0 mm 1 mps 617 mmHg 81%
    07:00 +20°C° 0 mm 1 mps 617 mmHg 77%
    08:00 +21°C° 0 mm 1 mps 618 mmHg 74%
    09:00 +23°C° 0 mm 1 mps 618 mmHg 67%
    10:00 +25°C° 0 mm 1 mps 619 mmHg 61%
    11:00 +27°C° 0 mm 1 mps 619 mmHg 54%
    12:00 +27°C° 0.6 mm 1 mps 618 mmHg 56%
    13:00 +26°C° 0.6 mm 1 mps 617 mmHg 58%
    14:00 +26°C° 0.6 mm 1 mps 617 mmHg 59%
    15:00 +25°C° 1.2 mm 1 mps 616 mmHg 65%
    16:00 +24°C° 1.2 mm 1 mps 616 mmHg 71%
    17:00 +23°C° 1.2 mm 1 mps 615 mmHg 77%
    18:00 +22°C° 1.2 mm 1 mps 616 mmHg 81%
    19:00 +20°C° 1.2 mm 1 mps 616 mmHg 85%
    20:00 +19°C° 1.2 mm 1 mps 616 mmHg 89%
    21:00 +18°C° 0.1 mm 1 mps 616 mmHg 88%
    22:00 +18°C° 0.1 mm 1 mps 616 mmHg 88%
    23:00 +18°C° 0.1 mm 1 mps 616 mmHg 88%
    Show more